Terminal Aerodrome Forecast
Issued by NWS Duluth, MN

Home | Current Version | Previous Version | Text Only | Print | Product List | Glossary On
Versions: 1 2 3 4 5 6 7 8 9 10 11 12 13 14 15 16 17 18 19 20 21 22 23 24 25 26 27
000
FTUS43 KDLH 181100
TAFINL
TAF
KINL 181129Z 1812/1912 30005KT 4SM -SN BKN030
     FM181400 26005KT P6SM BKN030
     FM182200 21005KT P6SM BKN040
     FM190100 21005KT 5SM -SN OVC030=

USA.gov is the U.S. government's official web portal to all federal, state and local government web resources and services.